Regional Weather Roundup
Issued by NWS

Home | Current Version | Previous Version | Graphics & Text | Print | Product List | Glossary On
Versions: 1 2 3 4 5 6 7 8 9 10 11 12 13 14 15 16 17 18 19 20 21 22 23 24 25 26 27 28 29 30 31 32 33 34 35 36 37 38 39 40 41 42 43 44 45 46 47 48 49 50
000
ASUS43 KBIS 231910
RWRND

NORTH DAKOTA REGIONAL WEATHER ROUNDUP
NATIONAL WEATHER SERVICE BISMARCK ND
200 PM CDT TUE MAY 23 2017

NOTE: "FAIR" INDICATES FEW OR NO CLOUDS BELOW 12,000 FEET WITH NO
SIGNIFICANT WEATHER AND/OR OBSTRUCTIONS TO VISIBILITY.


NDZ001>003-009>011-017-232000-
NORTHWEST NORTH DAKOTA

CITY           SKY/WX    TMP DP  RH WIND       PRES   REMARKS
WILLISTON      FAIR      70  32  24 E6        30.10F
MINOT          FAIR      66  33  29 N9G22     30.08F
MINOT AFB      SUNNY     66  32  28 NE13G18   30.07F
$$

NDZ018>021-031>035-040>046-232000-
SOUTHWEST NORTH DAKOTA

CITY           SKY/WX    TMP DP  RH WIND       PRES   REMARKS
BISMARCK       PTSUNNY   63  35  35 NE20G29   30.07F
DICKINSON      FAIR      62  33  33 N15G29    30.10F
GARRISON         N/A     62  34  35 NE13G24   30.08F
HETTINGER ARPT PTSUNNY   63  33  32 NE18      30.12F
$$

NDZ004>008-012>016-024-026-027-054-232000-
NORTHEAST NORTH DAKOTA

CITY           SKY/WX    TMP DP  RH WIND       PRES   REMARKS
GRAND FORKS    PTSUNNY   62  45  53 NE18      29.99F
GRND FRKS AFB  CLOUDY    60  43  54 NE13      30.00F
DEVILS LAKE    PTSUNNY   61  40  45 NE25      30.04F
$$

NDZ022-023-025-028>030-036>039-047>053-232000-
SOUTHEAST NORTH DAKOTA

CITY           SKY/WX    TMP DP  RH WIND       PRES   REMARKS
FARGO          CLOUDY    54  46  74 N16G25    29.95F
JAMESTOWN      CLOUDY    55  43  63 NE20G25   30.01F
$$




USA.gov is the U.S. government's official web portal to all federal, state and local government web resources and services.